Weather History for KZPH - November, 2013

Change the Weather History Date:

Thursday, November 7, 2013

  Actual Average (KPCM) Record (KPCM)
Temperature  
Mean Temperature 70 °F -  
Max Temperature 80 °F 79 °F 90 °F (1943)
Min Temperature 60 °F 55 °F 37 °F (1934)
Cooling Degree Days 5    
Growing Degree Days 20 (Base 50)    
Moisture  
Dew Point 64 °F    
Average Humidity 89    
Maximum Humidity 100    
Minimum Humidity 48    
Precipitation  
Precipitation 0.00 in - - ()
Sea Level Pressure  
Sea Level Pressure 30.04 in    
Wind  
Wind Speed 2 mph (North)    
Max Wind Speed 8 mph    
Max Gust Speed -    
Visibility 8 miles    
Events Fog    
Averages and records for this station are not official NWS values.
T = Trace of Precipitation, MM = Missing Value Source: NWS Daily Summary

Daily Weather History Graph

Daily Weather History Graph

Search for Another Location

Airport or City:

Trip Planner

Search our weather history database for the weather conditions in past years. The results will help you decide how hot, cold, wet, or windy it might be!

Date:

Astronomy

Nov. 07, 2013 Rise Set
Actual Time 6:44 AM EST 5:39 PM EST
Civil Twilight 6:20 AM EST 6:04 PM EST
Nautical Twilight 5:52 AM EST 6:32 PM EST
Astronomical Twilight 5:24 AM EST 6:59 PM EST
Moon 10:47 AM EST (11/7) 9:52 PM EST (11/7)
Length of Visible Light 11h 44m
Length of Day
10h 54m
Waxing Crescent, 22% of the Moon is Illuminated
Nov 7
Waxing Crescent
Nov 10
First Quarter
Nov 17
Full
Nov 25
Last Quarter
Dec 2
New

Hourly Weather History & Observations

Time (EST) Temp. Heat Index Dew Point Humidity Pressure Visibility Wind Dir Wind Speed Gust Speed Precip Events Conditions
12:15 AM 62.6 °F - 62.6 °F 100% 30.08 in 7.0 mi Calm Calm - N/A   Clear
12:35 AM 62.6 °F - 62.6 °F 100% 30.07 in 10.0 mi Calm Calm - N/A   Clear
12:55 AM 62.6 °F - 62.6 °F 100% 30.07 in 10.0 mi Calm Calm - N/A   Clear
1:15 AM 62.6 °F - 62.6 °F 100% 30.07 in 10.0 mi Calm Calm - N/A   Clear
1:35 AM 62.6 °F - 62.6 °F 100% 30.06 in 10.0 mi Calm Calm - N/A   Clear
1:55 AM 62.6 °F - 62.6 °F 100% 30.05 in 10.0 mi Calm Calm - N/A   Clear
2:15 AM 62.6 °F - 62.6 °F 100% 30.05 in 7.0 mi Calm Calm - N/A   Clear
2:55 AM 62.6 °F - 62.6 °F 100% 30.04 in 7.0 mi Calm Calm - N/A   Clear
3:15 AM 60.8 °F - 60.8 °F 100% 30.04 in 7.0 mi Calm Calm - N/A   Clear
3:35 AM 62.6 °F - 62.6 °F 100% 30.04 in 7.0 mi Calm Calm - N/A   Clear
3:55 AM 60.8 °F - 60.8 °F 100% 30.03 in 3.0 mi Calm Calm - N/A   Mostly Cloudy
4:15 AM 62.6 °F - 62.6 °F 100% 30.03 in 1.8 mi North 3.5 mph - N/A   Overcast
4:35 AM 62.6 °F - 62.6 °F 100% 30.02 in 1.0 mi North 4.6 mph - N/A   Overcast
4:55 AM 62.6 °F - 62.6 °F 100% 30.03 in 2.0 mi North 4.6 mph - N/A   Overcast
5:15 AM 62.6 °F - 62.6 °F 100% 30.03 in 1.0 mi North 5.8 mph - N/A   Overcast
5:35 AM 62.6 °F - 62.6 °F 100% 30.03 in 1.2 mi NNE 4.6 mph - N/A   Overcast
5:55 AM 62.6 °F - 62.6 °F 100% 30.03 in 1.0 mi NNE 4.6 mph - N/A   Overcast
6:15 AM 62.6 °F - 62.6 °F 100% 30.04 in 0.8 mi North 4.6 mph - N/A   Overcast
6:35 AM 62.6 °F - 62.6 °F 100% 30.04 in 0.8 mi NNE 4.6 mph - N/A   Overcast
6:55 AM 62.6 °F - 62.6 °F 100% 30.05 in 0.5 mi North 3.5 mph - N/A Fog Fog
7:15 AM 62.6 °F - 62.6 °F 100% 30.06 in 0.5 mi North 3.5 mph - N/A Fog Fog
7:35 AM 62.6 °F - 62.6 °F 100% 30.06 in 0.5 mi NNE 4.6 mph - N/A Fog Fog
7:55 AM 62.6 °F - 62.6 °F 100% 30.07 in 1.2 mi NNE 4.6 mph - N/A   Overcast
8:15 AM 62.6 °F - 62.6 °F 100% 30.08 in 1.2 mi North 3.5 mph - N/A   Overcast
8:35 AM 62.6 °F - 62.6 °F 100% 30.08 in 1.8 mi Calm Calm - N/A   Overcast
8:55 AM 64.4 °F - 64.4 °F 100% 30.08 in 2.5 mi ENE 3.5 mph - N/A   Overcast
9:15 AM 64.4 °F - 64.4 °F 100% 30.09 in 10.0 mi ENE 3.5 mph - N/A   Overcast
9:35 AM 64.4 °F - 64.4 °F 100% 30.09 in 10.0 mi Calm Calm - N/A   Overcast
9:55 AM 64.4 °F - 64.4 °F 100% 30.09 in 10.0 mi Calm Calm - N/A   Overcast
10:15 AM 66.2 °F - 66.2 °F 100% 30.09 in 10.0 mi Calm Calm - N/A   Overcast
10:35 AM 69.8 °F - 69.8 °F 100% 30.09 in 10.0 mi NW 4.6 mph - N/A   Overcast
10:55 AM 69.8 °F - 69.8 °F 100% 30.09 in 10.0 mi NNW 3.5 mph - N/A   Mostly Cloudy
11:15 AM 73.4 °F - 71.6 °F 94% 30.08 in 10.0 mi Calm Calm - N/A   Scattered Clouds
11:35 AM 77.0 °F - 71.6 °F 83% 30.07 in 10.0 mi NW 3.5 mph - N/A   Scattered Clouds
11:55 AM 78.8 °F - 73.4 °F 83% 30.06 in 10.0 mi NNW 4.6 mph - N/A   Clear
12:15 PM 77.0 °F - 69.8 °F 78% 30.06 in 10.0 mi NW 4.6 mph - N/A   Clear
12:35 PM 77.0 °F - 68.0 °F 74% 30.05 in 10.0 mi NNW 8.1 mph - N/A   Clear
12:55 PM 78.8 °F - 66.2 °F 65% 30.04 in 10.0 mi North 8.1 mph - N/A   Clear
1:15 PM 78.8 °F - 64.4 °F 61% 30.02 in 10.0 mi NNW 8.1 mph - N/A   Clear
1:35 PM 78.8 °F - 64.4 °F 61% 30.02 in 10.0 mi North 6.9 mph - N/A   Clear
1:55 PM 78.8 °F - 62.6 °F 57% 30.01 in 10.0 mi North 5.8 mph - N/A   Clear
2:15 PM 77.0 °F - 62.6 °F 61% 30.01 in 10.0 mi North 3.5 mph - N/A   Clear
2:35 PM 78.8 °F - 62.6 °F 57% 30.01 in 10.0 mi North 5.8 mph - N/A   Clear
2:55 PM 78.8 °F - 62.6 °F 57% 30.00 in 10.0 mi North 4.6 mph - N/A   Clear
3:15 PM 78.8 °F - 62.6 °F 57% 30.00 in 10.0 mi NNW 4.6 mph - N/A   Clear
3:35 PM 78.8 °F - 62.6 °F 57% 30.00 in 10.0 mi North 4.6 mph - N/A   Clear
3:55 PM 80.6 °F 81.1 °F 59.0 °F 48% 29.99 in 10.0 mi NNW 8.1 mph - N/A   Clear
4:15 PM 78.8 °F - 60.8 °F 54% 30.00 in 10.0 mi North 4.6 mph - N/A   Clear
4:35 PM 77.0 °F - 60.8 °F 57% 30.00 in 10.0 mi North 5.8 mph - N/A   Clear
4:55 PM 77.0 °F - 60.8 °F 57% 30.00 in 10.0 mi NNE 3.5 mph - N/A   Clear
5:55 PM 73.4 °F - 64.4 °F 73% 30.01 in 10.0 mi WNW 4.6 mph - N/A   Clear
6:15 PM 73.4 °F - 68.0 °F 83% 30.02 in 10.0 mi NW 4.6 mph - N/A   Clear
6:35 PM 71.6 °F - 68.0 °F 88% 30.02 in 10.0 mi WNW 3.5 mph - N/A   Clear
6:55 PM 71.6 °F - 68.0 °F 88% 30.02 in 10.0 mi WNW 3.5 mph - N/A   Clear
7:15 PM 69.8 °F - 68.0 °F 94% 30.03 in 10.0 mi WNW 5.8 mph - N/A   Clear
7:35 PM 69.8 °F - 68.0 °F 94% 30.03 in 10.0 mi NW 5.8 mph - N/A   Clear
7:55 PM 69.8 °F - 68.0 °F 94% 30.04 in 10.0 mi NW 4.6 mph - N/A   Clear
8:15 PM 68.0 °F - 68.0 °F 100% 30.04 in 10.0 mi Calm Calm - N/A   Clear
8:35 PM 68.0 °F - 68.0 °F 100% 30.05 in 10.0 mi Calm Calm - N/A   Clear
8:55 PM 68.0 °F - 68.0 °F 100% 30.05 in 10.0 mi NW 3.5 mph - N/A   Clear
9:15 PM 68.0 °F - 68.0 °F 100% 30.05 in 10.0 mi Calm Calm - N/A   Clear
9:35 PM 66.2 °F - 66.2 °F 100% 30.04 in 10.0 mi Calm Calm - N/A   Clear
9:55 PM 64.4 °F - 64.4 °F 100% 30.04 in 10.0 mi Calm Calm - N/A   Clear
10:15 PM 64.4 °F - 64.4 °F 100% 30.03 in 10.0 mi Calm Calm - N/A   Clear
10:35 PM 64.4 °F - 64.4 °F 100% 30.03 in 10.0 mi Calm Calm - N/A   Clear
10:55 PM 64.4 °F - 64.4 °F 100% 30.03 in 10.0 mi Calm Calm - N/A   Clear
11:15 PM 62.6 °F - 62.6 °F 100% 30.03 in 10.0 mi Calm Calm - N/A   Clear
11:35 PM 62.6 °F - 62.6 °F 100% 30.03 in 7.0 mi Calm Calm - N/A   Clear
11:55 PM 60.8 °F - 60.8 °F 100% 30.03 in 10.0 mi Calm Calm - N/A   Clear